THORAD DELTA 1 DEB, 9989

Orbit data source: Space-Track

THORAD DELTA 1 DEB, 9989 is space debris in LEO originally from a launch on Fri, 15 Nov 1974 UTC launched from the Air Force Western Test Range (AFWTR). Debris objects in space refer to the collection of defunct objects orbiting the Earth. Examples of debris include non-operational satellites, rocket bodies, and fragments generated from explosions, collisions, or faulty payload assembly.

Loading next visibility...
Identifier
9989, 1974-089EG
Orbit
LEO
Country
Flag of USUS
Related business
Manufacturer
Unknown
Mission
Spacecraft
Bus & Motor
Unknown
Mass
Unknown
Launch date (UTC)
1974-11-15 (51 years ago)
Launch vehicle
Unknown
Launch site
Air Force Western Test Range (AFWTR)
Object type
Payload
Rocket body
Debris
Shape & HBR
Unknown shape, 0.1 m
Radar Cross Section
Small (<0.1 m²)

Expand to show TLE details & history
Last TLE update: 5 days ago

TLE from 5 days ago
0 THORAD DELTA 1 DEB
1 09989U 74089EG  26019.25057416  .00000999  00000-0  66179-2 0  9999
2 09989 103.0477 283.5557 0181055 276.8676 238.0587 12.48789202282903
Epoch: 2026-01-19T06:00Z
TLE epoch observation values (Epoch: 2026-01-19T06:00:49.607Z)
Latitude
26.10155°
Longitude
-98.81292°
Altitude
1,549.391 km
Speed
7.059 km/s
True Right ascension
07h 20m 10s
True Declination
25° 58' 46"
Sunlit
Object was in full shadow at epoch
Visualization orbit readout
Latitude
Unknown
Longitude
Unknown
Altitude
Unknown
Speed
Unknown
Apparent Right ascension
Unknown
Apparent Declination
Unknown
Sunlit
N/A
Visualization observer readout
Local Sidereal Time
04:20:17
Azimuth
Unknown
Elevation
Unknown
Doppler factor
Unknown
Orbital elements
Apogee altitude
1,609.234 km
Perigee altitude
1,325.147 km
Semi-major axis
7,845.328 km
Eccentricity
0.01811
Inclination
103.0477°
RAAN
283.5557°
Arg. of periapsis
276.8676°
True anomaly
236.3192°
Mean anomaly
238.0587°
Eccentric anomaly
237.18685°
Mean motion
3.12339 °/min
Orbital period
115.26 mins
BSTAR
0.0066179
Loading maneuver chart data...
Computing Atmospheric mass density...

Documentation

Showing up to 5 results
|